Williamsport, PA

5:21 AM EDT on May 30, 2017 (GMT -0400)
Williamsport Rgnl

Weather History for KIPT - March, 2012

Change the Weather History Date:

Tuesday, March 13, 2012

  Actual Average Record
Temperature  
Mean Temperature 60 °F 37 °F  
Max Temperature 74 °F 47 °F 82 °F (1990)
Min Temperature 45 °F 27 °F 1 °F (1948)
Degree Days  
Heating Degree Days 5 28  
Month to date heating degree days 299 390  
Since 1 July heating degree days 4072 4857  
Cooling Degree Days 0 0  
Month to date cooling degree days 0 0  
Year to date cooling degree days 0 0  
Growing Degree Days 12 (Base 50)    
Moisture  
Dew Point 45 °F    
Average Humidity 59    
Maximum Humidity 80    
Minimum Humidity 37    
Precipitation  
Precipitation T in 0.09 in 1.06 in (1977)
Month to date precipitation 0.79 1.12  
Year to date precipitation 5.55 6.16  
Snow  
Snow 0.00 in 0.30 in 14.70 in (1993)
Month to date snowfall 0.1 3.8  
Since 1 July snowfall 12.3 31.8  
Snow Depth 0.00 in    
Sea Level Pressure  
Sea Level Pressure 29.98 in    
Wind  
Wind Speed 5 mph (West)    
Max Wind Speed 22 mph    
Max Gust Speed 30 mph    
Visibility 10 miles    
Events Rain    
T = Trace of Precipitation, MM = Missing Value Source: NWS Daily Summary

Daily Weather History Graph

Daily Weather History Graph

Search for Another Location

Airport or City:

Trip Planner

Search our weather history database for the weather conditions in past years. The results will help you decide how hot, cold, wet, or windy it might be!

Date:

Astronomy

Mar. 13, 2012 Rise Set
Actual Time 7:21 AM EDT 7:12 PM EDT
Civil Twilight 6:54 AM EDT 7:40 PM EDT
Nautical Twilight 6:22 AM EDT 8:12 PM EDT
Astronomical Twilight 5:50 AM EDT 8:44 PM EDT
Moon 12:45 AM EDT (3/13) 10:29 AM EDT (3/13)
Length of Visible Light 12h 45m
Length of Day
11h 50m
Waning Gibbous, 66% of the Moon is Illuminated
Mar 13
Waning Gibbous
Mar 14
Last Quarter
Mar 22
New
Mar 30
First Quarter
Apr 6
Full

Hourly Weather History & Observations

Time (EDT) Temp. Dew Point Humidity Pressure Visibility Wind Dir Wind Speed Gust Speed Precip Events Conditions
12:54 AM 54.0 °F 42.1 °F 64% 30.06 in 10.0 mi Calm Calm - 0.00 in   Overcast
1:54 AM 53.1 °F 43.0 °F 69% 30.04 in 10.0 mi NNE 3.5 mph - 0.00 in   Overcast
2:54 AM 52.0 °F 44.1 °F 74% 30.02 in 10.0 mi Calm Calm - N/A   Mostly Cloudy
3:54 AM 51.1 °F 45.0 °F 80% 30.01 in 10.0 mi Calm Calm - N/A   Overcast
4:54 AM 50.0 °F 45.0 °F 83% 30.00 in 10.0 mi WNW 3.5 mph - N/A   Overcast
5:54 AM 51.1 °F 45.0 °F 80% 29.99 in 10.0 mi Calm Calm - N/A   Overcast
6:54 AM 51.1 °F 45.0 °F 80% 30.00 in 10.0 mi WNW 3.5 mph - N/A   Overcast
7:54 AM 51.1 °F 44.1 °F 77% 29.99 in 10.0 mi Calm Calm - N/A   Overcast
8:54 AM 53.1 °F 45.0 °F 74% 30.00 in 9.0 mi Calm Calm - N/A   Overcast
9:54 AM 57.0 °F 45.0 °F 64% 29.99 in 10.0 mi Calm Calm - 0.00 in   Overcast
10:54 AM 57.9 °F 45.0 °F 62% 29.99 in 10.0 mi Calm Calm - N/A   Overcast
11:54 AM 59.0 °F 48.0 °F 67% 29.99 in 10.0 mi Calm Calm - 0.00 in Rain Light Rain
12:54 PM 63.0 °F 50.0 °F 63% 29.97 in 10.0 mi SE 6.9 mph - N/A   Mostly Cloudy
1:54 PM 71.1 °F 51.1 °F 49% 29.95 in 10.0 mi West 17.3 mph 21.9 mph N/A   Partly Cloudy
2:10 PM 71.6 °F 50.0 °F 46% 29.94 in 10.0 mi WSW 20.7 mph 25.3 mph N/A   Clear
2:54 PM 73.0 °F 48.9 °F 42% 29.92 in 10.0 mi West 17.3 mph - N/A   Clear
3:54 PM 73.0 °F 46.9 °F 39% 29.91 in 10.0 mi West 18.4 mph 28.8 mph N/A   Scattered Clouds
4:54 PM 73.9 °F 46.0 °F 37% 29.91 in 10.0 mi West 13.8 mph - N/A   Scattered Clouds
5:54 PM 72.0 °F 44.1 °F 37% 29.92 in 10.0 mi West 15.0 mph 26.5 mph N/A   Clear
6:54 PM 69.1 °F 42.1 °F 38% 29.94 in 10.0 mi WSW 13.8 mph 25.3 mph N/A   Clear
7:54 PM 66.0 °F 42.1 °F 42% 29.96 in 10.0 mi West 8.1 mph - N/A   Clear
8:54 PM 59.0 °F 42.1 °F 53% 29.98 in 10.0 mi West 3.5 mph - N/A   Clear
9:54 PM 55.0 °F 43.0 °F 64% 29.99 in 10.0 mi Calm Calm - N/A   Clear
10:54 PM 52.0 °F 42.1 °F 69% 30.01 in 10.0 mi Calm Calm - N/A   Clear
11:54 PM 48.9 °F 41.0 °F 74% 30.02 in 10.0 mi Calm Calm - N/A   Clear